Location: Chassagnes
(44.4047°N, 4.1657°E)
Time: 12:32:23
(UTC+00:00)

Cosmos 2058 Rocket - Pass Details

Date: 27 October 2020
Orbit: 610 x 639 km, 82.5° (Epoch: 23 November)

Event Time Altitude Azimuth Distance (km) Brightness Sun altitude
Rises 17:38:23 0° 179° (S) 2,912 6.6 -11.1°
Reaches altitude 10° 17:40:36 10° 177° (S) 2,013 5.7 -11.5°
Maximum altitude 17:45:02 65° 95° (E) 701 3.1 -12.3°
Drops below altitude 10° 17:49:31 10° 14° (NNE) 2,039 5.5 -13.1°
Sets 17:51:47 0° 12° (NNE) 2,954 6.4 -13.5°
